Custer, SD

3:18 AM MST on February 23, 2017 (GMT -0700)
Custer County

Weather History for KCUT - February, 2014

Change the Weather History Date:

Thursday, February 27, 2014

  Actual Average Record
Temperature  
Mean Temperature 24 °F 28 °F  
Max Temperature 44 °F 38 °F 64 °F (1950)
Min Temperature 4 °F 17 °F -15 °F (2015)
Degree Days  
Heating Degree Days 41 37  
Month to date heating degree days 1297 1063  
Since 1 July heating degree days 5807 5798  
Cooling Degree Days 0 0  
Month to date cooling degree days 0 0  
Year to date cooling degree days 0 0  
Moisture  
Dew Point 8 °F    
Average Humidity 44    
Maximum Humidity 63    
Minimum Humidity 25    
Precipitation  
Precipitation 0.00 in 0.02 in 0.33 in (1969)
Month to date precipitation 0.72 0.51  
Year to date precipitation 1.17 0.84  
Sea Level Pressure  
Sea Level Pressure 29.69 in    
Wind  
Wind Speed 6 mph (West)    
Max Wind Speed 13 mph    
Max Gust Speed 20 mph    
Visibility 10 miles    
Events      
T = Trace of Precipitation, MM = Missing Value Source: NWS Daily Summary

Daily Weather History Graph

Daily Weather History Graph

Search for Another Location

Airport or City:

Trip Planner

Search our weather history database for the weather conditions in past years. The results will help you decide how hot, cold, wet, or windy it might be!

Date:

Astronomy

Feb. 27, 2014 Rise Set
Actual Time 6:34 AM MST 5:40 PM MST
Civil Twilight 6:05 AM MST 6:09 PM MST
Nautical Twilight 5:32 AM MST 6:42 PM MST
Astronomical Twilight 4:59 AM MST 7:16 PM MST
Moon 5:10 AM MST (2/27) 4:07 PM MST (2/27)
Length of Visible Light 12h 04m
Length of Day
11h 06m
Waning Crescent, 4% of the Moon is Illuminated
Feb 27
Waning Crescent
Mar 1
New
Mar 8
First Quarter
Mar 16
Full
Mar 23
Last Quarter

Hourly Weather History & Observations

Time (MST) Temp. Windchill Dew Point Humidity Pressure Visibility Wind Dir Wind Speed Gust Speed Precip Events Conditions
12:53 AM 9.0 °F 0.6 °F -2.9 °F 59% 29.96 in 10.0 mi West 4.6 mph - N/A   Clear
1:53 AM 8.1 °F 1.4 °F -2.9 °F 61% 29.94 in 10.0 mi NW 3.5 mph - N/A   Clear
2:53 AM 9.0 °F - -2.9 °F 59% 29.90 in 10.0 mi Calm Calm - N/A   Clear
3:53 AM 10.9 °F 4.7 °F -0.0 °F 61% 29.86 in 10.0 mi SW 3.5 mph - N/A   Clear
4:53 AM 8.1 °F -0.5 °F -2.0 °F 64% 29.87 in 10.0 mi West 4.6 mph - N/A   Clear
5:53 AM 10.9 °F - -5.1 °F 49% 29.85 in 10.0 mi Calm Calm - N/A   Clear
6:53 AM 12.9 °F 5.2 °F -5.1 °F 45% 29.83 in 10.0 mi South 4.6 mph - N/A   Clear
7:53 AM 21.9 °F 14.5 °F -4.0 °F 32% 29.80 in 10.0 mi WSW 5.8 mph - N/A   Clear
8:53 AM 28.9 °F 21.9 °F 3.9 °F 35% 29.77 in 10.0 mi Variable 6.9 mph - N/A   Mostly Cloudy
9:53 AM 32.0 °F 26.4 °F 8.1 °F 37% 29.73 in 10.0 mi WSW 5.8 mph - N/A   Clear
10:53 AM 37.0 °F 30.4 °F 10.0 °F 33% 29.70 in 10.0 mi West 9.2 mph - N/A   Clear
11:53 AM 41.0 °F 35.2 °F 8.1 °F 26% 29.64 in 10.0 mi West 9.2 mph - N/A   Clear
12:53 PM 43.0 °F 37.2 °F 12.0 °F 28% 29.60 in 10.0 mi West 10.4 mph - N/A   Clear
1:53 PM 43.0 °F 37.2 °F 14.0 °F 31% 29.60 in 10.0 mi WSW 10.4 mph - N/A   Clear
2:53 PM 43.0 °F 38.8 °F 16.0 °F 34% 29.59 in 10.0 mi WSW 6.9 mph - N/A   Clear
3:53 PM 41.0 °F 35.8 °F 12.9 °F 32% 29.58 in 10.0 mi West 8.1 mph - N/A   Clear
4:53 PM 39.9 °F 34.5 °F 12.9 °F 33% 29.60 in 10.0 mi West 8.1 mph - N/A   Clear
5:53 PM 36.0 °F 32.1 °F 14.0 °F 41% 29.60 in 10.0 mi West 4.6 mph - N/A   Clear
6:53 PM 34.0 °F 28.8 °F 12.9 °F 42% 29.60 in 10.0 mi West 5.8 mph - N/A   Clear
7:53 PM 33.1 °F 26.9 °F 15.1 °F 48% 29.56 in 10.0 mi West 6.9 mph - N/A   Clear
8:53 PM 30.9 °F 23.5 °F 15.1 °F 52% 29.55 in 10.0 mi West 8.1 mph - N/A   Clear
9:53 PM 30.0 °F 24.1 °F 16.0 °F 56% 29.54 in 10.0 mi West 5.8 mph - N/A   Clear
10:53 PM 32.0 °F 24.8 °F 17.1 °F 54% 29.50 in 10.0 mi West 8.1 mph - N/A   Clear
11:53 PM 30.0 °F 24.1 °F 17.1 °F 59% 29.48 in 10.0 mi WNW 5.8 mph - N/A   Clear